Anchorage Merrill, AK

12:01 PM AKDT on August 21, 2017 (GMT -0800)
Merrill

Weather History for PAMR - August, 2015

Change the Weather History Date:

Wednesday, August 5, 2015

  Actual Average Record
Temperature  
Mean Temperature 62 °F -  
Max Temperature 71 °F 65 °F 77 °F (2004)
Min Temperature 55 °F 51 °F 46 °F (2003)
Degree Days  
Heating Degree Days 2    
Growing Degree Days 12 (Base 50)    
Moisture  
Dew Point 51 °F    
Average Humidity 64    
Maximum Humidity 83    
Minimum Humidity 42    
Precipitation  
Precipitation 0.00 in - - ()
Sea Level Pressure  
Sea Level Pressure 29.88 in    
Wind  
Wind Speed 4 mph (WSW)    
Max Wind Speed 9 mph    
Max Gust Speed -    
Visibility 10 miles    
Events      
Averages and records for this station are not official NWS values.
T = Trace of Precipitation, MM = Missing Value Source: NWS Daily Summary

Daily Weather History Graph

Daily Weather History Graph

Search for Another Location

Airport or City:

Trip Planner

Search our weather history database for the weather conditions in past years. The results will help you decide how hot, cold, wet, or windy it might be!

Date:

Astronomy

Aug. 05, 2015 Rise Set
Actual Time 5:41 AM AKDT 10:27 PM AKDT
Civil Twilight 4:39 AM AKDT 11:28 PM AKDT
Nautical Twilight 2:37 AM AKDT 1:49 AM AKDT
Astronomical Twilight Sun does not set Sun does not set
Moon 11:55 PM AKDT (8/5) 1:51 PM AKDT (8/5)
Length of Visible Light 18h 48m
Length of Day
16h 45m
Waning Gibbous, 64% of the Moon is Illuminated
Aug 5
Waning Gibbous
Aug 6
Last Quarter
Aug 14
New
Aug 22
First Quarter
Aug 29
Full

Hourly Weather History & Observations

Time (AKDT) Temp. Dew Point Humidity Pressure Visibility Wind Dir Wind Speed Gust Speed Precip Events Conditions
12:53 AM 63.0 °F 55.0 °F 75% 29.86 in 10.0 mi Calm Calm - N/A   Mostly Cloudy
1:53 AM 63.0 °F 54.0 °F 72% 29.86 in 10.0 mi South 3.5 mph - N/A   Mostly Cloudy
2:53 AM 61.0 °F 50.0 °F 67% 29.87 in 10.0 mi South 3.5 mph - N/A   Mostly Cloudy
3:53 AM 60.1 °F 50.0 °F 69% 29.87 in 10.0 mi SSE 4.6 mph - N/A   Mostly Cloudy
4:53 AM 57.0 °F 51.1 °F 81% 29.86 in 10.0 mi SSE 3.5 mph - N/A   Scattered Clouds
5:53 AM 55.0 °F 50.0 °F 83% 29.87 in 10.0 mi SE 3.5 mph - N/A   Scattered Clouds
6:53 AM 57.0 °F 50.0 °F 77% 29.88 in 10.0 mi South 3.5 mph - N/A   Clear
7:53 AM 57.9 °F 52.0 °F 81% 29.89 in 10.0 mi SSW 5.8 mph - N/A   Clear
8:53 AM 61.0 °F 53.1 °F 75% 29.90 in 10.0 mi South 5.8 mph - N/A   Partly Cloudy
9:53 AM 61.0 °F 51.1 °F 70% 29.90 in 10.0 mi SW 3.5 mph - N/A   Clear
10:53 AM 63.0 °F 53.1 °F 70% 29.90 in 10.0 mi WNW 4.6 mph - N/A   Scattered Clouds
11:53 AM 63.0 °F 52.0 °F 67% 29.90 in 10.0 mi WNW 8.1 mph - N/A   Scattered Clouds
12:53 PM 64.9 °F 54.0 °F 68% 29.90 in 10.0 mi WNW 8.1 mph - N/A   Clear
1:53 PM 66.0 °F 51.1 °F 59% 29.90 in 10.0 mi WNW 9.2 mph - N/A   Scattered Clouds
2:53 PM 66.0 °F 51.1 °F 59% 29.89 in 10.0 mi West 6.9 mph - N/A   Scattered Clouds
3:53 PM 68.0 °F 51.1 °F 55% 29.88 in 10.0 mi NW 9.2 mph - N/A   Clear
4:53 PM 70.0 °F 48.9 °F 47% 29.88 in 10.0 mi WNW 8.1 mph - N/A   Clear
5:53 PM 70.0 °F 48.0 °F 46% 29.87 in 10.0 mi West 8.1 mph - N/A   Scattered Clouds
6:53 PM 70.0 °F 46.0 °F 42% 29.86 in 10.0 mi WSW 8.1 mph - N/A   Partly Cloudy
7:53 PM 69.1 °F 45.0 °F 42% 29.86 in 10.0 mi West 8.1 mph - N/A   Partly Cloudy
8:53 PM 66.9 °F 51.1 °F 57% 29.87 in 10.0 mi NW 5.8 mph - N/A   Partly Cloudy
9:53 PM 64.9 °F 51.1 °F 61% 29.88 in 10.0 mi NW 4.6 mph - N/A   Partly Cloudy
10:53 PM 64.0 °F 50.0 °F 60% 29.87 in 10.0 mi Calm Calm - N/A   Clear
11:53 PM 63.0 °F 50.0 °F 63% 29.88 in 10.0 mi Variable 3.5 mph - N/A   Scattered Clouds